Theta_e
305 306 306 307 308 308 309 312 328 336 337 334 332 332 330 330 331 332 330 329 330 329 328 328 327 325 323 319 314 307 303 299 300 299 299 300 301 300 303 304 302 301 299
301 303 303 303 305 306 307 308 313 327 336 335 334 334 333 332 332 332 331 328 328 328 328 327 325 323 320 317 310 304 300 298 299 300 299 298 298 299 298 298 299 299 298
297 300 301 302 302 303 304 305 308 314 332 336 335 334 332 327 329 329 330 328 327 327 327 327 325 321 319 314 309 306 305 300 297 298 302 295 297 294 294 296 297 297 296
295 296 298 299 299 301 302 304 305 307 319 334 333 330 329 327 329 331 331 330 327 326 326 325 324 321 318 315 310 306 307 306 301 298 296 297 298 293 291 291 293 294 292
298 299 299 300 300 300 300 301 302 304 307 322 332 331 328 330 331 330 329 328 326 327 325 324 322 319 316 315 309 306 307 309 305 303 296 294 292 290 289 291 288 290 290
299 300 302 303 303 304 304 303 302 303 304 306 320 330 329 327 326 323 324 322 322 324 324 322 321 319 315 312 310 309 308 308 306 303 299 295 294 291 289 288 289 289 288
299 300 301 302 302 302 303 304 304 304 304 304 307 319 327 328 325 326 323 316 316 317 319 318 318 316 315 313 312 309 308 306 304 300 297 296 294 293 290 288 287 286 286
298 300 301 301 301 301 302 301 302 302 304 305 305 307 315 324 324 324 323 320 318 318 319 317 315 314 312 311 309 308 307 304 301 297 294 291 292 291 289 289 288 283 283
298 300 300 300 300 300 299 298 299 300 302 303 304 305 308 312 321 321 321 321 318 314 313 313 312 310 310 308 306 304 301 297 294 292 291 290 289 290 289 289 288 287 282
299 300 299 298 299 296 295 296 296 297 298 301 303 304 307 309 314 315 315 313 310 310 310 309 308 307 305 304 303 299 295 291 290 289 288 288 288 288 288 288 286 286 284
298 299 297 298 295 293 293 294 294 295 297 300 301 303 306 307 308 308 306 306 305 305 305 305 304 302 299 298 294 292 291 289 288 288 288 287 287 287 286 286 285 285 284
298 298 296 295 292 292 292 293 293 294 297 299 300 302 303 304 304 304 303 304 302 303 301 301 299 296 293 292 290 289 289 288 287 287 287 287 288 286 286 285 284 284 284
298 295 294 293 292 291 292 292 292 293 296 299 299 300 301 301 301 301 301 301 300 299 298 295 292 291 290 289 289 289 288 288 288 288 287 286 287 286 286 284 284 284 284
295 292 292 292 291 291 291 290 290 292 294 297 297 298 298 299 299 299 298 296 294 293 291 290 290 289 289 289 289 289 288 288 287 287 286 286 285 284 284 284 284 285 283
293 290 291 292 291 290 290 290 290 291 292 293 293 293 294 293 293 293 292 291 290 289 289 289 289 289 290 289 288 288 287 286 285 285 285 285 285 287 287 287 286 285 284
292 290 290 290 290 290 289 290 290 290 291 289 289 289 289 288 288 288 288 289 289 289 291 291 290 290 291 293 292 288 286 286 285 283 283 283 285 286 287 287 288 288 286
290 289 288 288 288 289 290 289 290 291 290 289 289 289 289 288 288 289 289 289 289 290 291 292 292 290 291 293 292 289 285 284 283 283 283 283 284 284 284 285 287 287 288
289 288 288 288 288 289 290 290 290 290 290 289 289 289 288 288 288 288 288 287 288 288 288 288 289 289 291 291 289 287 284 283 283 283 283 282 283 283 285 285 285 285 285
287 288 288 289 288 288 289 289 289 289 289 288 288 288 288 287 287 287 286 287 286 286 285 285 285 286 287 289 288 285 283 283 282 283 283 284 283 285 288 286 284 282 282
287 287 288 288 288 289 290 289 288 288 287 287 287 288 287 287 286 286 285 285 286 285 287 286 287 289 287 289 288 284 284 282 283 283 283 284 285 287 287 285 282 279 280
287 288 289 287 288 289 289 287 287 286 287 288 287 287 287 286 286 286 286 285 285 284 284 283 284 284 284 288 288 286 284 283 283 282 282 283 285 286 285 284 281 280 284
288 289 288 288 289 289 288 286 285 287 287 287 287 286 287 288 287 286 286 285 282 280 280 280 279 280 281 286 287 287 286 286 283 281 282 282 284 283 283 282 283 283 282
288 289 288 287 288 288 288 285 286 287 287 287 286 286 287 287 285 282 282 281 281 280 279 279 278 278 280 281 285 285 285 285 283 282 283 282 281 281 279 280 281 280 278
287 288 288 287 286 288 288 287 287 288 287 286 286 286 285 281 280 280 280 280 280 279 279 278 277 278 279 281 282 282 282 283 282 281 279 279 279 278 278 278 278 278 278
288 289 289 288 287 287 287 288 288 288 287 287 286 283 280 279 279 279 279 278 279 280 278 278 278 278 279 281 284 284 283 282 282 280 277 276 275 275 275 276 276 277 277
288 288 288 287 287 287 287 288 288 288 287 284 281 279 279 279 280 281 281 286 285 285 284 283 281 281 283 284 284 283 283 282 281 276 274 274 274 274 274 274 275 275 275
Wind_Speed
13 11 8 8 8 8 9 12 12 15 10 8 8 8 10 9 9 9 13 14 13 15 14 10 11 10 10 10 11 6 7 3 5 4 2 2 2 3 4 4 4 5 5
5 8 7 6 8 9 8 8 11 11 13 11 10 7 8 8 8 7 11 13 15 14 13 14 12 13 9 11 12 9 5 3 7 4 2 3 4 4 3 3 5 6 5
10 8 7 6 6 8 9 9 10 11 13 14 9 7 2 1 4 7 10 13 16 15 15 15 13 13 10 10 12 11 11 6 5 5 3 3 4 1 3 6 5 6 5
3 2 3 3 4 7 5 7 7 8 10 14 12 16 11 11 9 10 10 10 15 15 16 15 14 13 10 11 11 10 9 7 7 3 4 1 4 4 2 2 4 5 5
5 7 7 6 6 5 2 3 5 6 7 9 13 12 15 9 7 8 12 11 11 14 15 14 14 13 10 11 13 12 11 8 7 5 4 2 0 3 3 3 2 3 4
5 5 4 4 5 6 7 5 4 2 3 5 9 15 14 14 9 7 9 7 7 8 12 13 12 12 12 13 13 13 14 10 6 6 6 5 4 4 3 2 2 2 3
4 4 6 7 7 8 7 5 7 5 6 4 4 10 15 15 14 13 9 7 6 6 12 14 13 11 12 12 12 12 12 11 8 8 5 4 3 3 3 3 3 3 2
4 5 6 6 6 7 7 8 7 7 7 5 4 4 8 9 9 11 9 8 9 9 10 11 11 12 12 11 11 7 7 7 5 5 4 3 3 2 3 4 3 2 1
5 6 7 8 8 9 10 10 10 8 6 7 6 6 5 7 11 10 9 7 7 5 8 10 10 10 11 11 11 8 8 8 6 6 6 4 3 3 3 2 2 1 3
5 5 5 6 6 8 8 9 9 10 10 8 7 7 7 6 7 5 7 5 4 6 9 10 10 10 9 10 9 7 9 10 6 6 8 5 5 4 4 2 3 1 1
3 3 3 4 5 6 8 9 10 11 11 9 8 8 6 4 3 3 3 5 6 8 8 9 10 10 10 9 9 10 10 11 10 8 8 7 7 3 4 3 2 0 2
2 1 1 3 5 7 8 9 10 9 10 9 7 4 3 1 2 4 6 7 8 8 9 10 10 10 11 11 12 11 10 11 10 9 10 9 6 4 1 2 3 2 4
1 2 1 3 5 6 7 10 10 10 9 8 6 4 3 3 4 5 7 8 9 9 9 9 10 12 13 14 13 13 12 11 10 9 8 6 6 4 2 4 4 4 3
3 1 3 4 6 6 9 9 9 8 7 6 6 6 5 6 7 8 9 10 10 11 11 10 11 12 13 14 14 14 13 11 8 8 7 5 3 3 2 4 4 3 3
2 2 3 3 5 7 8 8 8 9 8 10 9 8 8 10 10 10 11 12 13 12 12 13 13 12 12 10 13 13 11 10 8 7 5 3 5 6 6 3 4 6 5
3 3 4 5 6 6 6 7 9 10 11 12 10 10 10 10 11 11 12 13 12 13 13 13 13 12 10 21 19 14 9 9 7 5 3 3 3 2 3 7 9 7 5
3 4 4 6 6 6 6 8 7 8 11 10 10 10 10 10 10 12 13 13 12 11 13 12 11 13 11 19 18 17 7 7 5 5 4 3 1 2 5 7 8 8 9
4 4 5 6 6 4 6 6 6 9 10 10 9 9 9 10 9 11 13 11 10 11 9 11 11 10 10 16 15 14 8 6 6 6 3 3 3 4 6 7 6 4 4
4 5 6 7 5 4 6 7 7 9 9 10 10 10 9 9 8 11 12 9 11 11 8 8 8 9 8 13 12 9 6 6 6 3 2 2 3 7 9 5 3 6 7
5 6 7 7 6 5 6 9 8 9 10 9 11 10 8 9 9 10 10 9 10 8 6 8 8 11 8 8 7 4 3 4 3 1 3 7 7 9 11 8 5 6 9
6 6 6 6 6 6 7 9 7 9 8 9 10 9 9 9 8 9 8 8 9 7 8 7 6 4 3 8 9 7 3 2 2 3 4 3 8 11 11 10 4 7 9
7 6 7 6 6 6 7 9 8 7 9 9 9 9 8 6 7 10 7 7 8 9 8 8 6 4 5 7 6 6 6 6 3 3 3 3 10 10 11 8 10 11 8
6 6 7 7 6 7 6 10 7 7 9 9 10 9 7 7 5 6 7 6 6 6 5 5 4 3 3 3 6 7 7 7 3 3 5 9 10 10 7 9 9 7 4
6 6 8 8 7 7 6 9 9 8 9 9 9 6 7 6 6 5 4 5 4 4 4 4 4 3 2 2 1 1 2 4 4 3 4 7 7 7 7 6 5 4 4
7 7 8 8 7 8 9 8 8 8 9 8 7 6 5 6 5 4 4 4 2 3 4 3 3 3 2 1 3 4 3 2 5 4 3 4 5 5 5 5 5 5 5
7 6 9 11 9 8 8 8 7 8 8 8 5 5 5 4 5 5 5 10 11 12 10 8 4 1 2 4 4 6 7 7 8 3 3 4 4 4 5 5 6 6 7
Wind_Direction
244 259 248 221 230 241 228 219 210 210 192 190 202 204 210 215 210 208 208 204 205 202 205 207 203 193 193 191 186 165 174 153 162 140 157 181 202 205 201 194 185 180 178
253 259 256 246 236 235 224 232 215 213 204 204 207 203 210 215 219 208 210 206 205 204 202 203 204 197 189 189 183 169 152 145 181 159 130 203 194 207 197 207 199 195 183
272 260 263 238 228 241 239 227 221 212 206 206 207 203 155 145 182 210 211 206 201 200 202 202 198 193 187 188 185 183 177 155 189 210 161 158 222 161 176 205 208 194 197
17 327 293 310 281 258 265 254 240 224 209 205 207 213 215 214 214 224 226 213 206 202 204 199 197 190 187 186 186 182 184 149 164 196 214 181 134 175 238 225 208 195 206
48 55 56 52 39 23 4 268 254 246 240 215 209 212 219 224 224 220 234 216 209 212 212 203 193 188 186 188 177 178 186 189 168 167 156 205 130 129 165 231 196 200 189
37 41 32 35 37 27 40 42 33 15 305 239 229 221 220 222 218 208 217 210 207 212 212 205 198 197 187 184 185 185 189 188 173 182 173 164 182 186 156 178 240 262 141
52 47 34 30 32 27 21 26 20 15 6 4 253 240 236 230 223 222 218 198 198 208 208 197 201 198 197 190 182 182 185 184 178 176 177 164 167 128 107 92 169 215 127
30 29 22 22 23 16 9 4 9 353 344 332 317 282 253 242 229 222 208 211 208 213 212 202 200 202 191 181 174 171 173 158 146 158 137 125 145 159 128 140 178 244 106
12 13 10 13 9 7 2 355 349 345 327 310 300 284 262 243 240 233 220 215 201 181 180 184 186 184 181 174 163 161 154 139 130 128 122 117 115 101 93 82 164 184 179
356 5 10 7 1 358 350 351 347 331 320 306 287 276 270 260 249 230 222 205 159 158 165 169 167 164 162 156 149 139 130 119 112 110 111 100 78 55 20 35 57 63 70
319 332 354 4 356 357 355 350 347 337 328 318 300 284 279 267 214 170 152 146 138 146 149 154 151 145 138 137 125 121 121 118 115 110 109 102 104 76 82 59 47 70 121
264 186 32 0 0 2 354 359 349 343 334 323 319 331 330 337 117 129 133 140 137 142 141 139 135 128 121 120 118 111 110 108 99 87 85 81 76 66 20 94 226 237 244
165 133 78 24 11 1 10 4 353 350 353 11 32 48 68 85 89 106 118 120 122 120 122 120 118 117 114 110 106 105 100 96 99 103 103 117 136 154 190 209 223 227 228
143 115 40 24 11 8 22 9 359 0 1 23 47 58 63 80 97 98 97 92 93 96 96 98 104 107 107 106 106 104 103 102 97 92 94 98 113 111 268 248 253 263 267
125 109 79 41 29 34 29 17 12 18 27 51 54 57 63 73 78 84 88 92 90 89 95 96 95 97 100 105 104 103 102 104 102 91 104 147 187 195 211 227 239 242 256
147 114 82 57 30 43 34 26 30 33 47 51 49 60 69 76 80 83 85 84 89 102 98 96 93 87 91 105 109 105 108 107 104 120 137 201 127 182 273 274 277 280 292
135 107 95 77 54 37 43 37 37 55 56 55 52 60 70 73 80 89 90 86 87 95 95 97 101 106 104 107 106 102 98 109 127 144 143 120 180 237 257 280 302 305 300
136 116 103 97 79 57 68 61 50 73 77 71 65 59 66 75 76 86 84 86 82 79 80 85 85 87 90 104 106 104 104 119 117 102 138 215 281 303 293 273 267 277 295
112 108 103 107 107 98 94 84 72 69 75 79 72 72 72 73 81 86 80 82 89 81 76 78 82 94 107 105 106 106 120 108 97 135 215 264 335 304 307 326 341 316 309
112 110 106 112 104 83 94 94 83 82 75 79 81 74 73 79 86 84 85 86 83 84 83 80 79 89 82 99 124 103 99 124 150 67 25 359 332 322 331 339 332 310 303
114 111 107 101 101 95 95 87 89 79 84 85 86 80 81 87 86 86 78 89 90 89 87 87 83 94 88 111 118 134 118 93 43 19 0 345 327 335 330 324 325 300 307
130 126 113 103 98 98 107 99 86 88 90 87 88 86 82 86 91 98 95 102 114 113 111 112 103 77 51 80 84 72 53 46 40 14 334 320 336 335 337 338 319 327 343
132 122 120 111 99 111 121 108 106 105 105 100 92 89 88 91 97 106 110 113 113 115 120 116 111 100 73 57 53 42 29 14 48 345 4 350 346 342 341 331 339 341 319
146 141 131 126 120 121 116 110 116 113 101 103 105 110 114 99 78 86 105 112 115 119 123 121 109 94 85 70 44 39 11 25 4 46 0 357 358 353 343 342 337 323 315
150 152 139 136 130 129 120 117 117 117 111 117 120 109 96 106 105 89 106 103 103 138 134 120 121 115 111 305 31 14 5 15 345 18 7 359 354 348 341 333 327 324 319
155 149 136 133 136 130 122 122 125 128 134 127 124 132 126 121 117 113 102 96 98 102 109 131 131 104 50 23 15 9 7 1 8 27 351 343 343 339 330 326 326 323 319